Year,Month,Day,Hour,Minute,Value (Times are PST for temperature in C)
2022,07,25,00,00,22.20
2022,07,25,00,01,22.20
2022,07,25,00,02,22.20
2022,07,25,00,03,22.30
2022,07,25,00,04,22.30
2022,07,25,00,05,22.30
2022,07,25,00,06,22.30
2022,07,25,00,07,22.30
2022,07,25,00,08,22.30
2022,07,25,00,09,22.30
2022,07,25,00,10,22.40
2022,07,25,00,11,22.40
2022,07,25,00,12,22.40
2022,07,25,00,13,22.40
2022,07,25,00,14,22.50
2022,07,25,00,15,22.50
2022,07,25,00,16,22.50
2022,07,25,00,17,22.50
2022,07,25,00,18,22.60
2022,07,25,00,19,22.60
2022,07,25,00,20,22.60
2022,07,25,00,21,22.60
2022,07,25,00,22,22.60
2022,07,25,00,23,22.60
2022,07,25,00,24,22.60
2022,07,25,00,25,22.60
2022,07,25,00,26,22.60
2022,07,25,00,27,22.60
2022,07,25,00,28,22.60
2022,07,25,00,29,22.60
2022,07,25,00,30,22.50
2022,07,25,00,31,22.50
2022,07,25,00,32,22.50
2022,07,25,00,33,22.50
2022,07,25,00,34,22.50
2022,07,25,00,35,22.50
2022,07,25,00,36,22.50
2022,07,25,00,37,22.50
2022,07,25,00,38,22.40
2022,07,25,00,39,22.40
2022,07,25,00,40,22.40
2022,07,25,00,41,22.40
2022,07,25,00,42,22.40
2022,07,25,00,43,22.40
2022,07,25,00,44,22.40
2022,07,25,00,45,22.40
2022,07,25,00,46,22.40
2022,07,25,00,47,22.40
2022,07,25,00,48,22.40
2022,07,25,00,49,22.40
2022,07,25,00,50,22.40
2022,07,25,00,51,22.40
2022,07,25,00,52,22.40
2022,07,25,00,53,22.40
2022,07,25,00,54,22.30
2022,07,25,00,55,22.30
2022,07,25,00,56,22.30
2022,07,25,00,57,22.30
2022,07,25,00,58,22.30
2022,07,25,00,59,22.30
2022,07,25,01,00,22.20
2022,07,25,01,01,22.20
2022,07,25,01,02,22.20
2022,07,25,01,03,22.10
2022,07,25,01,04,22.10
2022,07,25,01,05,22.10
2022,07,25,01,06,22.10
2022,07,25,01,07,22.00
2022,07,25,01,08,22.00
2022,07,25,01,09,21.90
2022,07,25,01,10,21.90
2022,07,25,01,11,21.90
2022,07,25,01,12,21.80
2022,07,25,01,13,21.80
2022,07,25,01,14,21.80
2022,07,25,01,15,21.80
2022,07,25,01,16,21.80
2022,07,25,01,17,21.80
2022,07,25,01,18,21.70
2022,07,25,01,19,21.70
2022,07,25,01,20,21.70
2022,07,25,01,21,21.70
2022,07,25,01,22,21.70
2022,07,25,01,23,21.70
2022,07,25,01,24,21.60
2022,07,25,01,25,21.60
2022,07,25,01,26,21.60
2022,07,25,01,27,21.60
2022,07,25,01,28,21.60
2022,07,25,01,29,21.60
2022,07,25,01,30,21.60
2022,07,25,01,31,21.60
2022,07,25,01,32,21.60
2022,07,25,01,33,21.70
2022,07,25,01,34,21.70
2022,07,25,01,35,21.70
2022,07,25,01,36,21.70
2022,07,25,01,37,21.70
2022,07,25,01,38,21.70
2022,07,25,01,39,21.70
2022,07,25,01,40,21.70
2022,07,25,01,41,21.70
2022,07,25,01,42,21.70
2022,07,25,01,43,21.70
2022,07,25,01,44,21.70
2022,07,25,01,45,21.60
2022,07,25,01,46,21.60
2022,07,25,01,47,21.60
2022,07,25,01,48,21.60
2022,07,25,01,49,21.60
2022,07,25,01,50,21.60
2022,07,25,01,51,21.50
2022,07,25,01,52,21.50
2022,07,25,01,53,21.40
2022,07,25,01,54,21.40
2022,07,25,01,55,21.40
2022,07,25,01,56,21.40
2022,07,25,01,57,21.40
2022,07,25,01,58,21.30
2022,07,25,01,59,21.30
2022,07,25,02,00,21.30
2022,07,25,02,01,21.30
2022,07,25,02,02,21.30
2022,07,25,02,03,21.20
2022,07,25,02,04,21.20
2022,07,25,02,05,21.20
2022,07,25,02,06,21.20
2022,07,25,02,07,21.20
2022,07,25,02,08,21.20
2022,07,25,02,09,21.20
2022,07,25,02,10,21.20
2022,07,25,02,11,21.10
2022,07,25,02,12,21.10
2022,07,25,02,13,21.10
2022,07,25,02,14,21.10
2022,07,25,02,15,21.10
2022,07,25,02,16,21.10
2022,07,25,02,17,21.10
2022,07,25,02,18,21.10
2022,07,25,02,19,21.10
2022,07,25,02,20,21.10
2022,07,25,02,21,21.10
2022,07,25,02,22,21.10
2022,07,25,02,23,21.10
2022,07,25,02,24,21.10
2022,07,25,02,25,21.10
2022,07,25,02,26,21.10
2022,07,25,02,27,21.10
2022,07,25,02,28,21.10
2022,07,25,02,29,21.10
2022,07,25,02,30,21.10
2022,07,25,02,31,21.10
2022,07,25,02,32,21.10
2022,07,25,02,33,21.10
2022,07,25,02,34,21.10
2022,07,25,02,35,21.10
2022,07,25,02,36,21.10
2022,07,25,02,37,21.10
2022,07,25,02,38,21.00
2022,07,25,02,39,21.00
2022,07,25,02,40,21.00
2022,07,25,02,41,20.90
2022,07,25,02,42,20.90
2022,07,25,02,43,20.90
2022,07,25,02,44,20.90
2022,07,25,02,45,20.90
2022,07,25,02,46,20.80
2022,07,25,02,47,20.80
2022,07,25,02,48,20.80
2022,07,25,02,49,20.80
2022,07,25,02,50,20.80
2022,07,25,02,51,20.80
2022,07,25,02,52,20.80
2022,07,25,02,53,20.80
2022,07,25,02,54,20.70
2022,07,25,02,55,20.70
2022,07,25,02,56,20.70
2022,07,25,02,57,20.70
2022,07,25,02,58,20.70
2022,07,25,02,59,20.70
2022,07,25,03,00,20.60
2022,07,25,03,01,20.60
2022,07,25,03,02,20.60
2022,07,25,03,03,20.60
2022,07,25,03,04,20.60
2022,07,25,03,05,20.60
2022,07,25,03,06,20.50
2022,07,25,03,07,20.50
2022,07,25,03,08,20.50
2022,07,25,03,09,20.50
2022,07,25,03,10,20.50
2022,07,25,03,11,20.50
2022,07,25,03,12,20.50
2022,07,25,03,13,20.50
2022,07,25,03,14,20.50
2022,07,25,03,15,20.50
2022,07,25,03,16,20.50
2022,07,25,03,17,20.50
2022,07,25,03,18,20.50
2022,07,25,03,19,20.50
2022,07,25,03,20,20.50
2022,07,25,03,21,20.50
2022,07,25,03,22,20.50
2022,07,25,03,23,20.50
2022,07,25,03,24,20.50
2022,07,25,03,25,20.50
2022,07,25,03,26,20.50
2022,07,25,03,27,20.50
2022,07,25,03,28,20.50
2022,07,25,03,29,20.50
2022,07,25,03,30,20.50
2022,07,25,03,31,20.50
2022,07,25,03,32,20.50
2022,07,25,03,33,20.50
2022,07,25,03,34,20.50
2022,07,25,03,35,20.50
2022,07,25,03,36,20.50
2022,07,25,03,37,20.50
2022,07,25,03,38,20.50
2022,07,25,03,39,20.40
2022,07,25,03,40,20.40
2022,07,25,03,41,20.40
2022,07,25,03,42,20.40
2022,07,25,03,43,20.40
2022,07,25,03,44,20.40
2022,07,25,03,45,20.40
2022,07,25,03,46,20.40
2022,07,25,03,47,20.40
2022,07,25,03,48,20.40
2022,07,25,03,49,20.40
2022,07,25,03,50,20.40
2022,07,25,03,51,20.40
2022,07,25,03,52,20.40
2022,07,25,03,53,20.40
2022,07,25,03,54,20.40
2022,07,25,03,55,20.40
2022,07,25,03,56,20.40
2022,07,25,03,57,20.40
2022,07,25,03,58,20.40
2022,07,25,03,59,20.40
2022,07,25,04,00,20.40
2022,07,25,04,01,20.40
2022,07,25,04,02,20.40
2022,07,25,04,03,20.40
2022,07,25,04,04,20.40
2022,07,25,04,05,20.40
2022,07,25,04,06,20.40
2022,07,25,04,07,20.40
2022,07,25,04,08,20.40
2022,07,25,04,09,20.40
2022,07,25,04,10,20.40
2022,07,25,04,11,20.30
2022,07,25,04,12,20.30
2022,07,25,04,13,20.30
2022,07,25,04,14,20.30
2022,07,25,04,15,20.30
2022,07,25,04,16,20.30
2022,07,25,04,17,20.30
2022,07,25,04,18,20.30
2022,07,25,04,19,20.30
2022,07,25,04,20,20.30
2022,07,25,04,21,20.30
2022,07,25,04,22,20.30
2022,07,25,04,23,20.30
2022,07,25,04,24,20.30
2022,07,25,04,25,20.30
2022,07,25,04,26,20.40
2022,07,25,04,27,20.40
2022,07,25,04,28,20.40
2022,07,25,04,29,20.40
2022,07,25,04,30,20.40
2022,07,25,04,31,20.40
2022,07,25,04,32,20.40
2022,07,25,04,33,20.40
2022,07,25,04,34,20.40
2022,07,25,04,35,20.50
2022,07,25,04,36,20.50
2022,07,25,04,37,20.50
2022,07,25,04,38,20.50
2022,07,25,04,39,20.50
2022,07,25,04,40,20.60
2022,07,25,04,41,20.60
2022,07,25,04,42,20.60
2022,07,25,04,43,20.60
2022,07,25,04,44,20.60
2022,07,25,04,45,20.60
2022,07,25,04,46,20.60
2022,07,25,04,47,20.60
2022,07,25,04,48,20.60
2022,07,25,04,49,20.60
2022,07,25,04,50,20.60
2022,07,25,04,51,20.50
2022,07,25,04,52,20.50
2022,07,25,04,53,20.50
2022,07,25,04,54,20.50
2022,07,25,04,55,20.40
2022,07,25,04,56,20.40
2022,07,25,04,57,20.40
2022,07,25,04,58,20.40
2022,07,25,04,59,20.40
2022,07,25,05,00,20.40
2022,07,25,05,01,20.40
2022,07,25,05,02,20.40
2022,07,25,05,03,20.40
2022,07,25,05,04,20.40
2022,07,25,05,05,20.40
2022,07,25,05,06,20.40
2022,07,25,05,07,20.40
2022,07,25,05,08,20.40
2022,07,25,05,09,20.40
2022,07,25,05,10,20.30
2022,07,25,05,11,20.30
2022,07,25,05,12,20.40
2022,07,25,05,13,20.40
2022,07,25,05,14,20.40
2022,07,25,05,15,20.40
2022,07,25,05,16,20.40
2022,07,25,05,17,20.40
2022,07,25,05,18,20.40
2022,07,25,05,19,20.40
2022,07,25,05,20,20.40
2022,07,25,05,21,20.40
2022,07,25,05,22,20.40
2022,07,25,05,23,20.40
2022,07,25,05,24,20.40
2022,07,25,05,25,20.40
2022,07,25,05,26,20.40
2022,07,25,05,27,20.40
2022,07,25,05,28,20.40
2022,07,25,05,29,20.40
2022,07,25,05,30,20.40
2022,07,25,05,31,20.40
2022,07,25,05,32,20.40
2022,07,25,05,33,20.40
2022,07,25,05,34,20.40
2022,07,25,05,35,20.40
2022,07,25,05,36,20.40
2022,07,25,05,37,20.40
2022,07,25,05,38,20.40
2022,07,25,05,39,20.40
2022,07,25,05,40,20.40
2022,07,25,05,41,20.40
2022,07,25,05,42,20.50
2022,07,25,05,43,20.50
2022,07,25,05,44,20.50
2022,07,25,05,45,20.50
2022,07,25,05,46,20.50
2022,07,25,05,47,20.40
2022,07,25,05,48,20.40
2022,07,25,05,49,20.40
2022,07,25,05,50,20.50
2022,07,25,05,51,20.50
2022,07,25,05,52,20.50
2022,07,25,05,53,20.50
2022,07,25,05,54,20.50
2022,07,25,05,55,20.50
2022,07,25,05,56,20.50
2022,07,25,05,57,20.50
2022,07,25,05,58,20.50
2022,07,25,05,59,20.50
2022,07,25,06,00,20.50
2022,07,25,06,01,20.50
2022,07,25,06,02,20.50
2022,07,25,06,03,20.50
2022,07,25,06,04,20.50
2022,07,25,06,05,20.50
2022,07,25,06,06,20.50
2022,07,25,06,07,20.50
2022,07,25,06,08,20.60
2022,07,25,06,09,20.60
2022,07,25,06,10,20.60
2022,07,25,06,11,20.50
2022,07,25,06,12,20.50
2022,07,25,06,13,20.50
2022,07,25,06,14,20.60
2022,07,25,06,15,20.60
2022,07,25,06,16,20.60
2022,07,25,06,17,20.60
2022,07,25,06,18,20.60
2022,07,25,06,19,20.60
2022,07,25,06,20,20.60
2022,07,25,06,21,20.60
2022,07,25,06,22,20.70
2022,07,25,06,23,20.70
2022,07,25,06,24,20.70
2022,07,25,06,25,20.70
2022,07,25,06,26,20.70
2022,07,25,06,27,20.80
2022,07,25,06,28,20.80
2022,07,25,06,29,20.80
2022,07,25,06,30,20.80
2022,07,25,06,31,20.80
2022,07,25,06,32,20.80
2022,07,25,06,33,20.80
2022,07,25,06,34,20.80
2022,07,25,06,35,20.80
2022,07,25,06,36,20.80
2022,07,25,06,37,20.70
2022,07,25,06,38,20.70
2022,07,25,06,39,20.70
2022,07,25,06,40,20.70
2022,07,25,06,41,20.70
2022,07,25,06,42,20.70
2022,07,25,06,43,20.70
2022,07,25,06,44,20.70
2022,07,25,06,45,20.70
2022,07,25,06,46,20.70
2022,07,25,06,47,20.70
2022,07,25,06,48,20.80
2022,07,25,06,49,20.80
2022,07,25,06,50,20.80
2022,07,25,06,51,20.80
2022,07,25,06,52,20.80
2022,07,25,06,53,20.90
2022,07,25,06,54,20.90
2022,07,25,06,55,20.90
2022,07,25,06,56,20.90
2022,07,25,06,57,21.00
2022,07,25,06,58,21.00
2022,07,25,06,59,21.00
2022,07,25,07,00,21.00
2022,07,25,07,01,21.00
2022,07,25,07,02,21.00
2022,07,25,07,03,21.00
2022,07,25,07,04,21.00
2022,07,25,07,05,21.00
2022,07,25,07,06,21.10
2022,07,25,07,07,21.10
2022,07,25,07,08,21.00
2022,07,25,07,09,21.00
2022,07,25,07,10,21.00
2022,07,25,07,11,21.00
2022,07,25,07,12,21.10
2022,07,25,07,13,21.10
2022,07,25,07,14,21.10
2022,07,25,07,15,21.10
2022,07,25,07,16,21.10
2022,07,25,07,17,21.10
2022,07,25,07,18,21.10
2022,07,25,07,19,21.10
2022,07,25,07,20,21.20
2022,07,25,07,21,21.20
2022,07,25,07,22,21.20
2022,07,25,07,23,21.20
2022,07,25,07,24,21.20
2022,07,25,07,25,21.20
2022,07,25,07,26,21.20
2022,07,25,07,27,21.20
2022,07,25,07,28,21.20
2022,07,25,07,29,21.20
2022,07,25,07,30,21.20
2022,07,25,07,31,21.20
2022,07,25,07,32,21.20
2022,07,25,07,33,21.20
2022,07,25,07,34,21.20
2022,07,25,07,35,21.20
2022,07,25,07,36,21.20
2022,07,25,07,37,21.20
2022,07,25,07,38,21.20
2022,07,25,07,39,21.20
2022,07,25,07,40,21.20
2022,07,25,07,41,21.20
2022,07,25,07,42,21.20
2022,07,25,07,43,21.10
2022,07,25,07,44,21.10
2022,07,25,07,45,21.10
2022,07,25,07,46,21.10
2022,07,25,07,47,21.10
2022,07,25,07,48,21.10
2022,07,25,07,49,21.10
2022,07,25,07,50,21.10
2022,07,25,07,51,21.10
2022,07,25,07,52,21.10
2022,07,25,07,53,21.10
2022,07,25,07,54,21.10
2022,07,25,07,55,21.10
2022,07,25,07,56,21.10
2022,07,25,07,57,21.10
2022,07,25,07,58,21.10
2022,07,25,07,59,21.10
2022,07,25,08,00,21.10
2022,07,25,08,01,21.10
2022,07,25,08,02,21.20
2022,07,25,08,03,21.20
2022,07,25,08,04,21.20
2022,07,25,08,05,21.20
2022,07,25,08,06,21.20
2022,07,25,08,07,21.20
2022,07,25,08,08,21.20
2022,07,25,08,09,21.30
2022,07,25,08,10,21.30
2022,07,25,08,11,21.30
2022,07,25,08,12,21.30
2022,07,25,08,13,21.30
2022,07,25,08,14,21.30
2022,07,25,08,15,21.40
2022,07,25,08,16,21.40
2022,07,25,08,17,21.40
2022,07,25,08,18,21.40
2022,07,25,08,19,21.50
2022,07,25,08,20,21.50
2022,07,25,08,21,21.60
2022,07,25,08,22,21.60
2022,07,25,08,23,21.60
2022,07,25,08,24,21.70
2022,07,25,08,25,21.70
2022,07,25,08,26,21.70
2022,07,25,08,27,21.80
2022,07,25,08,28,21.80
2022,07,25,08,29,21.80
2022,07,25,08,30,21.90
2022,07,25,08,31,21.90
2022,07,25,08,32,22.00
2022,07,25,08,33,22.00
2022,07,25,08,34,22.00
2022,07,25,08,35,22.10
2022,07,25,08,36,22.10
2022,07,25,08,37,22.20
2022,07,25,08,38,22.20
2022,07,25,08,39,22.20
2022,07,25,08,40,22.30
2022,07,25,08,41,22.30
2022,07,25,08,42,22.30
2022,07,25,08,43,22.30
2022,07,25,08,44,22.30
2022,07,25,08,45,22.30
2022,07,25,08,46,22.30
2022,07,25,08,47,22.30
2022,07,25,08,48,22.30
2022,07,25,08,49,22.30
2022,07,25,08,50,22.30
2022,07,25,08,51,22.30
2022,07,25,08,52,22.30
2022,07,25,08,53,22.30
2022,07,25,08,54,22.30
2022,07,25,08,55,22.40
2022,07,25,08,56,22.40
2022,07,25,08,57,22.40
2022,07,25,08,58,22.40
2022,07,25,08,59,22.40
2022,07,25,09,00,22.40
2022,07,25,09,01,22.40
2022,07,25,09,02,22.40
2022,07,25,09,03,22.40
2022,07,25,09,04,22.40
2022,07,25,09,05,22.50
2022,07,25,09,06,22.50
2022,07,25,09,07,22.60
2022,07,25,09,08,22.60
2022,07,25,09,09,22.60
2022,07,25,09,10,22.60
2022,07,25,09,11,22.60
2022,07,25,09,12,22.60
2022,07,25,09,13,22.60
2022,07,25,09,14,22.70
2022,07,25,09,15,22.60
2022,07,25,09,16,22.60
2022,07,25,09,17,22.60
2022,07,25,09,18,22.60
2022,07,25,09,19,22.60
2022,07,25,09,20,22.50
2022,07,25,09,21,22.40
2022,07,25,09,22,22.40
2022,07,25,09,23,22.40
2022,07,25,09,24,22.40
2022,07,25,09,25,22.40
2022,07,25,09,26,22.40
2022,07,25,09,27,22.40
2022,07,25,09,28,22.40
2022,07,25,09,29,22.40
2022,07,25,09,30,22.40
2022,07,25,09,31,22.30
2022,07,25,09,32,22.30
2022,07,25,09,33,22.20
2022,07,25,09,34,22.30
2022,07,25,09,35,22.30
2022,07,25,09,36,22.20
2022,07,25,09,37,22.20
2022,07,25,09,38,22.20
2022,07,25,09,39,22.20
2022,07,25,09,40,22.20
2022,07,25,09,41,22.20
2022,07,25,09,42,22.20
2022,07,25,09,43,22.20
2022,07,25,09,44,22.20
2022,07,25,09,45,22.20
2022,07,25,09,46,22.10
2022,07,25,09,47,22.10
2022,07,25,09,48,22.10
2022,07,25,09,49,22.10
2022,07,25,09,50,22.00
2022,07,25,09,51,22.00
2022,07,25,09,52,22.00
2022,07,25,09,53,21.90
2022,07,25,09,54,21.80
2022,07,25,09,55,21.80
2022,07,25,09,56,21.80
2022,07,25,09,57,21.80
2022,07,25,09,58,21.80
2022,07,25,09,59,21.80
2022,07,25,10,00,21.80
2022,07,25,10,01,21.80
2022,07,25,10,02,21.80
2022,07,25,10,03,21.90
2022,07,25,10,04,21.90
2022,07,25,10,05,21.90
2022,07,25,10,06,21.90
2022,07,25,10,07,22.00
2022,07,25,10,08,22.00
2022,07,25,10,09,22.10
2022,07,25,10,10,22.10
2022,07,25,10,11,22.10
2022,07,25,10,12,22.00
2022,07,25,10,13,21.90
2022,07,25,10,14,21.90
2022,07,25,10,15,21.80
2022,07,25,10,16,21.80
2022,07,25,10,17,21.80
2022,07,25,10,18,21.70
2022,07,25,10,19,21.60
2022,07,25,10,20,21.60
2022,07,25,10,21,21.60
2022,07,25,10,22,21.60
2022,07,25,10,23,21.70
2022,07,25,10,24,21.70
2022,07,25,10,25,21.70
2022,07,25,10,26,21.70
2022,07,25,10,27,21.80
2022,07,25,10,28,21.80
2022,07,25,10,29,21.90
2022,07,25,10,30,21.90
2022,07,25,10,31,21.90
2022,07,25,10,32,21.90
2022,07,25,10,33,21.90
2022,07,25,10,34,21.90
2022,07,25,10,35,21.90
2022,07,25,10,36,21.90
2022,07,25,10,37,22.00
2022,07,25,10,38,22.00
2022,07,25,10,39,22.10
2022,07,25,10,40,22.10
2022,07,25,10,41,22.10
2022,07,25,10,42,22.10
2022,07,25,10,43,22.10
2022,07,25,10,44,22.10
2022,07,25,10,45,22.20
2022,07,25,10,46,22.30
2022,07,25,10,47,22.30
2022,07,25,10,48,22.30
2022,07,25,10,49,22.40
2022,07,25,10,50,22.50
2022,07,25,10,51,22.50
2022,07,25,10,52,22.50
2022,07,25,10,53,22.50
2022,07,25,10,54,22.50
2022,07,25,10,55,22.60
2022,07,25,10,56,22.60
2022,07,25,10,57,22.70
2022,07,25,10,58,22.70
2022,07,25,10,59,22.80
2022,07,25,11,00,22.80
2022,07,25,11,01,22.80
2022,07,25,11,02,22.90
2022,07,25,11,03,22.90
2022,07,25,11,04,22.90
2022,07,25,11,05,22.80
2022,07,25,11,06,22.80
2022,07,25,11,07,22.80
2022,07,25,11,08,22.80
2022,07,25,11,09,22.80
2022,07,25,11,10,22.90
2022,07,25,11,11,22.90
2022,07,25,11,12,23.00
2022,07,25,11,13,23.10
2022,07,25,11,14,23.10
2022,07,25,11,15,23.10
2022,07,25,11,16,23.10
2022,07,25,11,17,23.10
2022,07,25,11,18,23.10
2022,07,25,11,19,23.10
2022,07,25,11,20,23.20
2022,07,25,11,21,23.20
2022,07,25,11,22,23.20
2022,07,25,11,23,23.20
2022,07,25,11,24,23.20
2022,07,25,11,25,23.20
2022,07,25,11,26,23.30
2022,07,25,11,27,23.20
2022,07,25,11,28,23.20
2022,07,25,11,29,23.20
2022,07,25,11,30,23.10
2022,07,25,11,31,23.00
2022,07,25,11,32,23.00
2022,07,25,11,33,23.00
2022,07,25,11,34,23.00
2022,07,25,11,35,22.90
2022,07,25,11,36,22.80
2022,07,25,11,37,22.80
2022,07,25,11,38,22.70
2022,07,25,11,39,22.70
2022,07,25,11,40,22.60
2022,07,25,11,41,22.60
2022,07,25,11,42,22.60
2022,07,25,11,43,22.50
2022,07,25,11,44,22.50
2022,07,25,11,45,22.40
2022,07,25,11,46,22.40
2022,07,25,11,47,22.40
2022,07,25,11,48,22.40
2022,07,25,11,49,22.50
2022,07,25,11,50,22.40
2022,07,25,11,51,22.40
2022,07,25,11,52,22.40
2022,07,25,11,53,22.40
2022,07,25,11,54,22.40
2022,07,25,11,55,22.50
2022,07,25,11,56,22.50
2022,07,25,11,57,22.60
2022,07,25,11,58,22.60
2022,07,25,11,59,22.60
2022,07,25,12,00,22.50
2022,07,25,12,01,22.60
2022,07,25,12,02,22.60
2022,07,25,12,03,22.60
2022,07,25,12,04,22.60
2022,07,25,12,05,22.60
2022,07,25,12,06,22.60
2022,07,25,12,07,22.70
2022,07,25,12,08,22.70
2022,07,25,12,09,22.70
2022,07,25,12,10,22.70
2022,07,25,12,11,22.70
2022,07,25,12,12,22.80
2022,07,25,12,13,22.80
2022,07,25,12,14,22.80
2022,07,25,12,15,22.90
2022,07,25,12,16,22.90
2022,07,25,12,17,22.90
2022,07,25,12,18,22.90
2022,07,25,12,19,23.00
2022,07,25,12,20,23.00
2022,07,25,12,21,23.10
2022,07,25,12,22,23.10
2022,07,25,12,23,23.20
2022,07,25,12,24,23.20
2022,07,25,12,25,23.20
2022,07,25,12,26,23.30
2022,07,25,12,27,23.30
2022,07,25,12,28,23.30
2022,07,25,12,29,23.40
2022,07,25,12,30,23.40
2022,07,25,12,31,23.40
2022,07,25,12,32,23.40
2022,07,25,12,33,23.40
2022,07,25,12,34,23.40
2022,07,25,12,35,23.40
2022,07,25,12,36,23.40
2022,07,25,12,37,23.40
2022,07,25,12,38,23.50
2022,07,25,12,39,23.60
2022,07,25,12,40,23.70
2022,07,25,12,41,23.80
2022,07,25,12,42,23.90
2022,07,25,12,43,23.90
2022,07,25,12,44,24.00
2022,07,25,12,45,24.10
2022,07,25,12,46,24.20
2022,07,25,12,47,24.30
2022,07,25,12,48,24.40
2022,07,25,12,49,24.50
2022,07,25,12,50,24.50
2022,07,25,12,51,24.50
2022,07,25,12,52,24.50
2022,07,25,12,53,24.50
2022,07,25,12,54,24.50
2022,07,25,12,55,24.60
2022,07,25,12,56,24.60
2022,07,25,12,57,24.70
2022,07,25,12,58,24.80
2022,07,25,12,59,24.80
2022,07,25,13,00,24.90
2022,07,25,13,01,24.90
2022,07,25,13,02,24.90
2022,07,25,13,03,24.90
2022,07,25,13,04,24.80
2022,07,25,13,05,24.90
2022,07,25,13,06,24.90
2022,07,25,13,07,24.90
2022,07,25,13,08,24.90
2022,07,25,13,09,24.90
2022,07,25,13,10,24.90
2022,07,25,13,11,25.00
2022,07,25,13,12,25.10
2022,07,25,13,13,25.10
2022,07,25,13,14,25.10
2022,07,25,13,15,25.20
2022,07,25,13,16,25.30
2022,07,25,13,17,25.40
2022,07,25,13,18,25.40
2022,07,25,13,19,25.40
2022,07,25,13,20,25.40
2022,07,25,13,21,25.40
2022,07,25,13,22,25.40
2022,07,25,13,23,25.50
2022,07,25,13,24,25.50
2022,07,25,13,25,25.70
2022,07,25,13,26,25.70
2022,07,25,13,27,25.80
2022,07,25,13,28,25.80
2022,07,25,13,29,25.80
2022,07,25,13,30,25.90
2022,07,25,13,31,25.90
2022,07,25,13,32,26.00
2022,07,25,13,33,26.10
2022,07,25,13,34,26.10
2022,07,25,13,35,26.20
2022,07,25,13,36,26.20
2022,07,25,13,37,26.20
2022,07,25,13,38,26.20
2022,07,25,13,39,26.20
2022,07,25,13,40,26.20
2022,07,25,13,41,26.20
2022,07,25,13,42,26.20
2022,07,25,13,43,26.30
2022,07,25,13,44,26.30
2022,07,25,13,45,26.40
2022,07,25,13,46,26.50
2022,07,25,13,47,26.60
2022,07,25,13,48,26.60
2022,07,25,13,49,26.60
2022,07,25,13,50,26.60
2022,07,25,13,51,26.60
2022,07,25,13,52,26.60
2022,07,25,13,53,26.60
2022,07,25,13,54,26.60
2022,07,25,13,55,26.60
2022,07,25,13,56,26.60
2022,07,25,13,57,26.60
2022,07,25,13,58,26.60
2022,07,25,13,59,26.60
2022,07,25,14,00,26.70
2022,07,25,14,01,26.70
2022,07,25,14,02,26.70
2022,07,25,14,03,26.70
2022,07,25,14,04,26.70
2022,07,25,14,05,26.80
2022,07,25,14,06,26.80
2022,07,25,14,07,26.80
2022,07,25,14,08,26.90
2022,07,25,14,09,26.90
2022,07,25,14,10,26.90
2022,07,25,14,11,26.90
2022,07,25,14,12,26.90
2022,07,25,14,13,26.90
2022,07,25,14,14,26.90
2022,07,25,14,15,26.90
2022,07,25,14,16,26.90
2022,07,25,14,17,26.80
2022,07,25,14,18,26.90
2022,07,25,14,19,27.00
2022,07,25,14,20,27.10
2022,07,25,14,21,27.30
2022,07,25,14,22,27.30
2022,07,25,14,23,27.30
2022,07,25,14,24,27.40
2022,07,25,14,25,27.40
2022,07,25,14,26,27.50
2022,07,25,14,27,27.60
2022,07,25,14,28,27.60
2022,07,25,14,29,27.60
2022,07,25,14,30,27.60
2022,07,25,14,31,27.70
2022,07,25,14,32,27.70
2022,07,25,14,33,27.80
2022,07,25,14,34,27.80
2022,07,25,14,35,27.80
2022,07,25,14,36,27.80
2022,07,25,14,37,27.80
2022,07,25,14,38,27.90
2022,07,25,14,39,27.90
2022,07,25,14,40,27.90
2022,07,25,14,41,27.90
2022,07,25,14,42,28.00
2022,07,25,14,43,28.00
2022,07,25,14,44,28.00
2022,07,25,14,45,27.90
2022,07,25,14,46,27.80
2022,07,25,14,47,27.80
2022,07,25,14,48,27.80
2022,07,25,14,49,27.80
2022,07,25,14,50,27.80
2022,07,25,14,51,27.80
2022,07,25,14,52,27.80
2022,07,25,14,53,27.70
2022,07,25,14,54,27.70
2022,07,25,14,55,27.70
2022,07,25,14,56,27.60
2022,07,25,14,57,27.60
2022,07,25,14,58,27.60
2022,07,25,14,59,27.60
2022,07,25,15,00,27.50
2022,07,25,15,01,27.50
2022,07,25,15,02,27.50
2022,07,25,15,03,27.50
2022,07,25,15,04,27.50
2022,07,25,15,05,27.60
2022,07,25,15,06,27.70
2022,07,25,15,07,27.70
2022,07,25,15,08,27.70
2022,07,25,15,09,27.60
2022,07,25,15,10,27.60
2022,07,25,15,11,27.50
2022,07,25,15,12,27.50
2022,07,25,15,13,27.40
2022,07,25,15,14,27.40
2022,07,25,15,15,27.40
2022,07,25,15,16,27.50
2022,07,25,15,17,27.40
2022,07,25,15,18,27.40
2022,07,25,15,19,27.40
2022,07,25,15,20,27.40
2022,07,25,15,21,27.40
2022,07,25,15,22,27.40
2022,07,25,15,23,27.40
2022,07,25,15,24,27.40
2022,07,25,15,25,27.30
2022,07,25,15,26,27.30
2022,07,25,15,27,27.20
2022,07,25,15,28,27.20
2022,07,25,15,29,27.20
2022,07,25,15,30,27.20
2022,07,25,15,31,27.30
2022,07,25,15,32,27.30
2022,07,25,15,33,27.40
2022,07,25,15,34,27.40
2022,07,25,15,35,27.40
2022,07,25,15,36,27.40
2022,07,25,15,37,27.40
2022,07,25,15,38,27.40
2022,07,25,15,39,27.50
2022,07,25,15,40,27.50
2022,07,25,15,41,27.50
2022,07,25,15,42,27.50
2022,07,25,15,43,27.40
2022,07,25,15,44,27.40
2022,07,25,15,45,27.40
2022,07,25,15,46,27.40
2022,07,25,15,47,27.40
2022,07,25,15,48,27.40
2022,07,25,15,49,27.40
2022,07,25,15,50,27.50
2022,07,25,15,51,27.50
2022,07,25,15,52,27.50
2022,07,25,15,53,27.50
2022,07,25,15,54,27.50
2022,07,25,15,55,27.50
2022,07,25,15,56,27.60
2022,07,25,15,57,27.60
2022,07,25,15,58,27.60
2022,07,25,15,59,27.70
2022,07,25,16,00,27.70
2022,07,25,16,01,27.70
2022,07,25,16,02,27.80
2022,07,25,16,03,27.80
2022,07,25,16,04,27.80
2022,07,25,16,05,27.90
2022,07,25,16,06,27.90
2022,07,25,16,07,28.00
2022,07,25,16,08,27.90
2022,07,25,16,09,27.90
2022,07,25,16,10,27.90
2022,07,25,16,11,27.90
2022,07,25,16,12,27.90
2022,07,25,16,13,27.90
2022,07,25,16,14,27.90
2022,07,25,16,15,27.80
2022,07,25,16,16,27.80
2022,07,25,16,17,27.80
2022,07,25,16,18,27.80
2022,07,25,16,19,27.90
2022,07,25,16,20,27.90
2022,07,25,16,21,27.90
2022,07,25,16,22,27.90
2022,07,25,16,23,27.90
2022,07,25,16,24,27.90
2022,07,25,16,25,27.90
2022,07,25,16,26,27.90
2022,07,25,16,27,28.00
2022,07,25,16,28,27.90
2022,07,25,16,29,27.90
2022,07,25,16,30,27.90
2022,07,25,16,31,27.90
2022,07,25,16,32,27.90
2022,07,25,16,33,27.90
2022,07,25,16,34,27.90
2022,07,25,16,35,27.80
2022,07,25,16,36,27.80
2022,07,25,16,37,27.80
2022,07,25,16,38,27.80
2022,07,25,16,39,27.80
2022,07,25,16,40,27.80
2022,07,25,16,41,27.80
2022,07,25,16,42,27.70
2022,07,25,16,43,27.70
2022,07,25,16,44,27.70
2022,07,25,16,45,27.70
2022,07,25,16,46,27.70
2022,07,25,16,47,27.70
2022,07,25,16,48,27.70
2022,07,25,16,49,27.70
2022,07,25,16,50,27.70
2022,07,25,16,51,27.70
2022,07,25,16,52,27.70
2022,07,25,16,53,27.80
2022,07,25,16,54,27.90
2022,07,25,16,55,27.90
2022,07,25,16,56,27.90
2022,07,25,16,57,27.90
2022,07,25,16,58,27.90
2022,07,25,16,59,28.00
2022,07,25,17,00,28.00
2022,07,25,17,01,28.00
2022,07,25,17,02,28.00
2022,07,25,17,03,28.00
2022,07,25,17,04,28.00
2022,07,25,17,05,28.10
2022,07,25,17,06,28.10
2022,07,25,17,07,28.10
2022,07,25,17,08,28.10
2022,07,25,17,09,28.10
2022,07,25,17,10,28.10
2022,07,25,17,11,28.20
2022,07,25,17,12,28.20
2022,07,25,17,13,28.20
2022,07,25,17,14,28.20
2022,07,25,17,15,28.30
2022,07,25,17,16,28.40
2022,07,25,17,17,28.40
2022,07,25,17,18,28.40
2022,07,25,17,19,28.40